Location: Schoeneck
(50.3760°N, 12.3330°E)
Time: 20:26:44
(UTC+02:00)

ISS - Visible Passes

Search period start: 23 May 2018 00:00
Search period end: 02 June 2018 00:00
Orbit: 402 x 407 km, 51.6° (Epoch: 24 May)

Date Brightness Start Highest point End Pass type
(mag) Time Alt. Az. Time Alt. Az. Time Alt. Az.
23 May -3.5 00:37:51 10° W 00:41:06 68° N 00:44:21 10° E visible
23 May -4.0 02:14:24 10° WNW 02:17:40 75° SSW 02:20:56 10° ESE visible
23 May -2.5 03:51:19 10° W 03:53:47 20° SW 03:56:15 10° SSE visible
23 May -3.6 22:09:18 10° SW 22:12:27 46° SSE 22:15:36 10° E visible
23 May -3.6 23:45:36 10° W 23:48:53 72° N 23:52:09 10° ENE visible
24 May -3.9 01:22:12 10° WNW 01:25:29 85° NNE 01:27:55 17° ESE visible
24 May -2.3 02:58:51 10° W 03:00:18 21° WSW 03:00:18 21° WSW visible
24 May -3.8 22:53:22 10° WSW 22:56:39 85° NNW 22:59:56 10° ENE visible
25 May -3.7 00:30:00 10° WNW 00:33:16 72° N 00:35:43 16° E visible
25 May -2.5 02:06:33 10° W 02:08:18 27° W 02:08:18 27° W visible
25 May -3.9 22:01:11 10° WSW 22:04:27 75° SSE 22:07:43 10° ENE visible
25 May -3.5 23:37:45 10° W 23:41:01 68° N 23:44:16 10° E visible
26 May -3.8 01:14:17 10° WNW 01:17:14 61° WSW 01:17:14 61° WSW visible
26 May -3.6 22:45:28 10° W 22:48:45 70° N 22:52:00 10° E visible
27 May -4.0 00:22:03 10° WNW 00:25:20 89° SSW 00:26:24 40° ESE visible
27 May -1.3 01:58:46 10° W 01:59:01 11° W 01:59:01 11° W visible
27 May -3.7 21:53:11 10° W 21:56:29 80° N 21:59:46 10° ENE visible
27 May -3.7 23:29:49 10° WNW 23:33:05 76° N 23:35:40 15° E visible
28 May -2.5 01:06:23 10° W 01:08:17 28° WSW 01:08:17 28° WSW visible
28 May -3.5 22:37:32 10° W 22:40:48 68° N 22:44:04 10° E visible
29 May -3.9 00:14:04 10° WNW 00:17:18 59° SSW 00:17:36 56° S visible
29 May -4.0 23:21:48 10° WNW 23:25:05 82° SSW 23:26:58 23° ESE visible
30 May -1.6 00:58:36 10° W 00:59:36 16° WSW 00:59:36 16° WSW visible
30 May -3.8 22:29:31 10° WNW 22:32:48 80° N 22:36:04 10° E visible
31 May -3.0 00:06:07 10° W 00:08:59 34° SW 00:08:59 34° SW visible
31 May -3.6 23:13:45 10° WNW 23:16:57 52° SSW 23:18:24 27° SE visible
01 Jun -3.9 22:21:25 10° WNW 22:24:42 74° SSW 22:27:49 11° ESE visible
